Weather History for Rochester, NH

Change the Weather History Date:

Saturday, March 15, 2014

  Actual Average (KSFM) Record (KSFM)
Temperature  
Mean Temperature 42 °F -  
Max Temperature 52 °F 37 °F 53 °F (2009)
Min Temperature 32 °F 20 °F 15 °F (2013)
Degree Days  
Heating Degree Days 24    
Moisture  
Dew Point 26 °F    
Average Humidity 56    
Maximum Humidity 76    
Minimum Humidity 39    
Precipitation  
Precipitation 0.00 in - - ()
Sea Level Pressure  
Sea Level Pressure 29.71 in    
Wind  
Wind Speed 5 mph (WSW)    
Max Wind Speed 13 mph    
Max Gust Speed 23 mph    
Visibility 10 miles    
Events      
Averages and records for this station are not official NWS values.
T = Trace of Precipitation, MM = Missing Value Source: NWS Daily Summary

Daily Weather History Graph

Daily Weather History Graph

Search for Another Location

Airport:

Trip Planner

Search our weather history database for the weather conditions in past years. The results will help you decide how hot, cold, wet, or windy it might be!

Date:

Astronomy

Mar. 15, 2014 Rise Set
Actual Time 6:55 AM EDT 6:49 PM EDT
Civil Twilight 6:27 AM EDT 7:18 PM EDT
Nautical Twilight 5:54 AM EDT 7:51 PM EDT
Astronomical Twilight 5:20 AM EDT 8:25 PM EDT
Moon 6:05 PM EDT (3/15) 6:07 AM EDT (3/15)
Length of Visible Light 12h 50m
Length of Day
11h 54m
Waxing Gibbous, 99% of the Moon is Illuminated
Mar 15
Waxing Gibbous
Mar 16
Full
Mar 23
Last Quarter
Mar 30
New
Apr 7
First Quarter

Hourly Weather History & Observations

Time (EDT) Temp. Windchill Dew Point Humidity Pressure Visibility Wind Dir Wind Speed Gust Speed Precip Events Conditions
12:51 AM 33.1 °F 28.7 °F 18.0 °F 54% 29.84 in 10.0 mi South 4.6 mph - N/A   Mostly Cloudy
1:51 AM 32.0 °F 27.5 °F 19.0 °F 59% 29.81 in 10.0 mi SSE 4.6 mph - N/A   Overcast
2:51 AM 33.1 °F - 19.9 °F 59% 29.78 in 10.0 mi Calm Calm - N/A   Scattered Clouds
3:51 AM 33.1 °F - 21.9 °F 64% 29.74 in 10.0 mi Calm Calm - N/A   Overcast
4:51 AM 34.0 °F 31.0 °F 23.0 °F 64% 29.72 in 10.0 mi Variable 3.5 mph - N/A   Overcast
5:51 AM 35.1 °F 32.2 °F 24.1 °F 64% 29.70 in 10.0 mi South 3.5 mph - N/A   Overcast
6:51 AM 35.1 °F 29.3 °F 27.0 °F 72% 29.69 in 10.0 mi South 6.9 mph - 0.00 in   Overcast
7:51 AM 36.0 °F - 28.9 °F 76% 29.69 in 10.0 mi Calm Calm - 0.00 in   Overcast
8:51 AM 37.0 °F - 30.0 °F 76% 29.68 in 10.0 mi Calm Calm - N/A   Mostly Cloudy
9:51 AM 39.9 °F 35.1 °F 32.0 °F 73% 29.66 in 10.0 mi Variable 6.9 mph - N/A   Scattered Clouds
10:51 AM 44.1 °F 42.5 °F 32.0 °F 63% 29.65 in 10.0 mi Variable 3.5 mph - N/A   Mostly Cloudy
11:51 AM 46.9 °F - 30.0 °F 52% 29.63 in 10.0 mi North - - N/A   Partly Cloudy
12:51 PM 51.1 °F - 28.9 °F 43% 29.64 in 10.0 mi WNW 5.8 mph - N/A   Clear
1:51 PM 51.1 °F - 27.0 °F 39% 29.62 in 10.0 mi Variable 6.9 mph 23.0 mph N/A   Mostly Cloudy
2:51 PM 50.0 °F - 27.0 °F 41% 29.62 in 10.0 mi West 9.2 mph - N/A   Overcast
3:51 PM 46.9 °F - 28.9 °F 50% 29.64 in 10.0 mi Variable 5.8 mph - 0.00 in   Overcast
4:51 PM 48.0 °F - 27.0 °F 44% 29.65 in 10.0 mi West 12.7 mph 19.6 mph N/A   Partly Cloudy
5:51 PM 46.9 °F - 26.1 °F 44% 29.68 in 10.0 mi West 12.7 mph 23.0 mph N/A   Partly Cloudy
6:51 PM 45.0 °F 42.6 °F 26.1 °F 48% 29.72 in 10.0 mi Variable 4.6 mph - N/A   Clear
7:51 PM 44.1 °F 39.0 °F 25.0 °F 47% 29.74 in 10.0 mi West 9.2 mph 19.6 mph N/A   Partly Cloudy
8:51 PM 42.1 °F 39.2 °F 24.1 °F 49% 29.77 in 10.0 mi Variable 4.6 mph - N/A   Partly Cloudy
9:51 PM 39.0 °F - 24.1 °F 55% 29.78 in 10.0 mi Calm Calm - N/A   Clear
10:51 PM 39.0 °F 32.3 °F 24.1 °F 55% 29.79 in 10.0 mi West 10.4 mph 21.9 mph N/A   Clear
11:51 PM 37.9 °F 30.9 °F 21.0 °F 51% 29.79 in 10.0 mi WSW 10.4 mph 17.3 mph N/A   Clear